PBO Station Position Time Series. Reference Frame : NAM14
Format Version,1.1.1
4-character ID,P418
Station name,Matlock___WA2006
Begin Date, 2006-08-10
End Date, 2023-06-26
Release Date, 2023-06-27
Reference position, 47.2366450687 North Latitude, -123.4078135603 East Longitude, 115.15940 meters elevation,
Date, North (mm), East (mm), Vertical (mm), North Std. Deviation (mm), East Std. Deviation (mm),              Vertical Std. Deviation (mm), Quality,
2006-08-10,0.00, 0.00, 0.00, 2.20, 1.54, 7.05, repro,
2006-08-11,0.87, 0.02, 5.86, 2.22, 1.55, 7.08, repro,
2006-08-12,1.12, 0.19, 2.59, 2.22, 1.55, 7.10, repro,
2006-08-13,0.59, 0.65, 4.77, 2.19, 1.54, 7.08, repro,
2006-08-14,0.21, 1.50, 0.81, 2.19, 1.55, 7.08, repro,
2006-08-15,1.34, 0.41, 5.40, 2.26, 1.57, 7.17, repro,
2006-08-16,1.18, 0.23, 6.91, 2.25, 1.60, 7.23, repro,
2006-08-17,0.79, 0.96, 1.00, 2.25, 1.61, 7.25, repro,
2006-08-18,1.61, 0.72, 1.60, 2.23, 1.60, 7.22, repro,
2006-08-19,1.95, -0.04, 1.72, 2.20, 1.55, 7.10, repro,
2006-08-20,1.45, 1.12, 5.00, 2.20, 1.56, 7.06, repro,
2006-08-21,0.08, 0.46, 9.33, 2.21, 1.57, 7.11, repro,
2006-08-22,1.19, 0.35, 11.06, 2.22, 1.57, 7.12, repro,
2006-08-23,1.08, -0.09, 8.06, 2.21, 1.57, 7.16, repro,
2006-08-24,1.62, 1.44, 9.98, 2.21, 1.57, 7.14, repro,
2006-08-25,0.77, 1.55, 6.02, 2.26, 1.63, 7.40, repro,
2006-08-26,-0.08, 0.57, 11.17, 2.29, 1.67, 7.58, repro,
2006-08-27,-0.19, 0.18, 10.76, 2.38, 1.74, 7.76, repro,
2006-08-28,0.30, -0.48, 10.43, 2.30, 1.67, 7.54, repro,
2006-08-29,1.17, -1.00, 6.97, 2.31, 1.67, 7.57, repro,
2006-08-30,0.48, 0.40, 3.24, 2.30, 1.67, 7.55, repro,
2006-08-31,1.23, 1.24, 6.82, 2.29, 1.67, 7.52, repro,
2006-09-01,0.70, -0.70, 4.41, 2.36, 1.74, 7.71, repro,
2006-09-02,1.06, -0.21, 8.89, 2.39, 1.74, 7.78, repro,
2006-09-03,0.77, -0.86, 7.34, 2.29, 1.67, 7.55, repro,
2006-09-04,1.38, -0.99, 4.01, 2.38, 1.68, 7.64, repro,
2006-09-05,3.57, 0.31, -1.01, 2.39, 1.69, 7.69, repro,
2006-09-06,0.62, -0.63, 9.05, 2.36, 1.73, 7.67, repro,
2006-09-07,1.98, 0.35, 9.80, 2.40, 1.79, 8.03, repro,
2006-09-08,-0.48, -1.58, 10.31, 2.35, 1.72, 7.87, repro,
2006-09-09,-0.50, -0.87, 8.89, 2.37, 1.66, 7.49, repro,
2006-09-10,2.25, -0.56, 2.54, 2.27, 1.62, 7.35, repro,
2006-09-11,1.28, -0.68, 5.06, 2.24, 1.62, 7.28, repro,
2006-09-12,0.75, -0.60, 8.76, 2.25, 1.63, 7.40, repro,
2006-09-13,1.74, -1.93, 7.60, 2.34, 1.71, 7.59, repro,
2006-09-14,0.95, -1.31, 9.25, 2.34, 1.70, 7.57, repro,
2006-09-15,3.98, -0.22, 12.13, 2.29, 1.60, 7.25, repro,
2006-09-16,1.09, -0.45, 2.68, 2.23, 1.58, 7.17, repro,
2006-09-17,2.04, -1.05, 5.07, 2.22, 1.59, 7.25, repro,
2006-09-18,1.04, -0.45, 12.42, 2.24, 1.59, 7.27, repro,
2006-09-19,0.66, -0.94, 9.64, 2.23, 1.60, 7.28, repro,
2006-09-20,0.03, -0.55, 4.97, 2.21, 1.56, 7.12, repro,
2006-09-21,-2.96, -1.28, 4.16, 2.26, 1.62, 7.30, repro,
2006-09-22,0.24, -0.51, 5.20, 2.32, 1.68, 7.53, repro,
2006-09-23,0.18, -0.24, 6.19, 2.26, 1.61, 7.31, repro,
2006-09-24,0.69, -0.58, 4.42, 2.28, 1.62, 7.34, repro,
2006-09-25,0.87, -0.30, 4.61, 2.23, 1.58, 7.17, repro,
2006-09-26,1.77, -0.86, 1.27, 2.23, 1.57, 7.16, repro,
2006-09-27,0.63, -1.20, -5.10, 2.24, 1.60, 7.25, repro,
2006-09-28,0.42, -1.01, 8.77, 2.29, 1.63, 7.33, repro,
2006-09-29,1.24, -0.49, 4.34, 2.24, 1.61, 7.26, repro,
2006-09-30,0.53, -0.80, 11.02, 2.26, 1.64, 7.43, repro,
2006-10-01,1.10, -0.21, 10.60, 2.26, 1.62, 7.38, repro,
2006-10-02,0.61, -0.32, 0.25, 2.31, 1.67, 7.44, repro,
2006-10-03,0.29, -0.07, 0.98, 2.34, 1.70, 7.67, repro,
2006-10-04,0.08, -0.15, 3.38, 2.25, 1.61, 7.27, repro,
2006-10-05,1.30, -0.93, 8.67, 2.24, 1.59, 7.22, repro,
2006-10-06,0.37, -0.47, 5.51, 2.25, 1.59, 7.23, repro,
2006-10-07,0.80, -0.84, -3.48, 2.34, 1.67, 7.61, repro,
2006-10-08,0.93, -1.45, 2.60, 2.30, 1.65, 7.45, repro,
2006-10-09,0.77, 0.62, -3.47, 2.29, 1.65, 7.40, repro,
2006-10-10,1.45, -0.15, -0.12, 2.29, 1.63, 7.49, repro,
2006-10-11,0.33, -0.09, 3.36, 2.26, 1.61, 7.37, repro,
2006-10-12,0.85, -0.21, 6.86, 2.23, 1.58, 7.12, repro,
2006-10-13,0.24, -0.94, 3.72, 2.22, 1.57, 7.16, repro,
2006-10-14,1.94, -0.26, 5.38, 2.21, 1.58, 7.18, repro,
2006-10-15,1.90, -1.78, 12.34, 2.26, 1.63, 7.37, repro,
2006-10-16,0.84, -1.30, 14.14, 2.20, 1.58, 7.14, repro,
2006-10-17,0.64, 0.24, 8.03, 2.34, 1.64, 7.65, repro,
2006-10-18,0.13, 0.11, 2.94, 2.22, 1.59, 7.32, repro,
2006-10-19,-0.28, 0.36, 0.13, 2.37, 1.64, 7.68, repro,
2006-10-20,0.04, 0.52, 1.48, 2.56, 1.84, 8.55, repro,
2006-10-21,0.52, -0.28, -5.79, 2.36, 1.66, 7.68, repro,
2006-10-22,1.04, 0.06, 2.17, 2.25, 1.62, 7.43, repro,
2006-10-23,1.02, -0.90, 4.40, 2.23, 1.60, 7.24, repro,
2006-10-24,-1.17, 0.52, 3.10, 2.42, 1.65, 7.74, repro,
2006-10-25,-0.18, -0.90, -5.24, 2.43, 1.69, 7.83, repro,
2006-10-26,0.37, -0.58, 5.93, 2.31, 1.67, 7.64, repro,
2006-10-27,0.76, 1.52, -0.77, 2.20, 1.61, 7.24, repro,
2006-10-28,-0.62, 0.81, -6.91, 2.35, 1.65, 7.62, repro,
2006-10-29,-2.61, 0.88, 5.58, 2.26, 1.64, 7.39, repro,
2006-10-30,1.47, -0.40, 1.53, 2.17, 1.56, 7.05, repro,
2006-10-31,0.18, 0.09, 6.52, 2.22, 1.60, 7.33, repro,
2006-11-01,1.82, -0.05, 1.53, 2.40, 1.71, 7.93, repro,
2006-11-02,0.88, -1.30, 8.23, 2.19, 1.59, 7.25, repro,
2006-11-03,2.39, -0.30, 4.15, 2.24, 1.63, 7.39, repro,
2006-11-04,1.77, 0.63, -1.21, 2.31, 1.65, 7.49, repro,
2006-11-05,1.46, -0.45, 4.68, 2.32, 1.70, 7.61, repro,
2006-11-06,-0.41, -0.15, 2.41, 2.17, 1.57, 7.13, repro,
2006-11-07,0.08, 0.79, -4.96, 2.37, 1.71, 7.65, repro,
2006-11-08,0.69, 0.45, -2.11, 2.36, 1.66, 7.54, repro,
2006-11-09,1.49, -0.46, -0.76, 2.37, 1.70, 7.60, repro,
2006-11-10,0.43, 0.40, -2.57, 2.25, 1.59, 7.22, repro,
2006-11-11,1.69, 0.61, -0.51, 2.37, 1.65, 7.51, repro,
2006-11-12,-1.64, 0.49, 0.51, 2.31, 1.65, 7.41, repro,
2006-11-13,0.14, -0.38, 4.74, 2.30, 1.65, 7.32, repro,
2006-11-14,0.92, 0.32, -5.65, 2.20, 1.56, 7.12, repro,
2006-11-15,-0.59, 0.41, -1.05, 2.17, 1.57, 7.10, repro,
2006-11-16,1.92, 0.34, -6.12, 2.17, 1.57, 7.14, repro,
2006-11-17,1.53, 0.38, -2.30, 2.15, 1.56, 7.07, repro,
2006-11-18,1.67, 1.18, -7.67, 2.18, 1.58, 7.19, repro,
2006-11-19,2.63, 1.88, -5.43, 2.17, 1.57, 7.09, repro,
2006-11-20,1.68, 1.23, -3.98, 2.16, 1.57, 7.08, repro,
2006-11-21,1.67, 0.36, -3.77, 2.17, 1.58, 7.13, repro,
2006-11-22,1.93, 0.19, -6.15, 2.16, 1.58, 7.15, repro,
2006-11-23,2.03, -0.10, -12.40, 2.26, 1.64, 7.38, repro,
2006-11-24,1.32, 0.35, -14.91, 2.23, 1.63, 7.38, repro,
2006-11-25,0.56, 1.72, -8.44, 2.16, 1.57, 7.08, repro,
2006-11-26,2.72, -1.33, -10.47, 2.19, 1.58, 7.16, repro,
2006-11-27,1.71, 2.72, -4.41, 2.21, 1.59, 7.18, repro,
2006-11-28,1.19, 1.55, -9.74, 2.22, 1.59, 7.21, repro,
2006-11-29,1.16, 2.69, -12.67, 2.18, 1.58, 7.14, repro,
2006-11-30,0.76, 1.76, -13.42, 2.17, 1.57, 7.09, repro,
2006-12-01,0.62, 2.88, -18.47, 2.16, 1.57, 7.06, repro,
2006-12-02,1.64, 2.08, -15.87, 2.17, 1.57, 7.09, repro,
2006-12-03,0.98, 1.92, -15.81, 2.21, 1.58, 7.17, repro,
2006-12-04,1.64, 3.28, -20.41, 2.23, 1.61, 7.25, repro,
2006-12-05,0.75, 1.43, -17.86, 2.22, 1.62, 7.29, repro,
2006-12-06,1.50, 2.06, -14.70, 2.26, 1.68, 7.45, repro,
2006-12-07,0.38, 2.40, -12.36, 2.21, 1.63, 7.33, repro,
2006-12-08,1.60, -0.18, -0.23, 2.21, 1.64, 7.33, repro,
2006-12-09,2.01, 1.84, -2.28, 2.24, 1.66, 7.40, repro,
2006-12-10,1.37, 1.87, -8.68, 2.25, 1.64, 7.36, repro,
2006-12-11,1.33, 1.29, -9.94, 2.17, 1.58, 7.09, repro,
2006-12-12,0.93, 1.42, -7.74, 2.23, 1.65, 7.38, repro,
2006-12-13,0.71, 0.16, -8.49, 2.19, 1.60, 7.22, repro,
2006-12-14,1.82, 0.83, -7.61, 2.15, 1.59, 7.14, repro,
2006-12-15,1.88, 0.96, -10.21, 2.29, 1.70, 7.64, repro,
2006-12-16,0.97, 1.70, -6.35, 2.27, 1.68, 7.37, repro,
2006-12-17,1.80, 2.10, -10.58, 2.30, 1.77, 7.77, repro,
2006-12-18,1.21, 2.41, -9.54, 2.40, 1.81, 8.12, repro,
2006-12-19,1.59, 2.08, -12.58, 2.24, 1.74, 7.72, repro,
2006-12-20,2.82, 1.44, -17.55, 2.26, 1.73, 7.73, repro,
2006-12-21,0.72, 0.86, -12.79, 2.17, 1.66, 7.35, repro,
2006-12-22,0.92, 1.89, -10.80, 2.29, 1.79, 7.96, repro,
2006-12-23,1.50, 0.19, -14.11, 2.21, 1.68, 7.45, repro,
2006-12-24,3.01, 2.42, -14.35, 2.17, 1.59, 7.10, repro,
2006-12-25,2.66, 2.30, -13.21, 2.21, 1.66, 7.35, repro,
2006-12-26,2.24, 0.50, -11.23, 2.29, 1.73, 7.62, repro,
2006-12-27,2.57, 2.06, -9.93, 2.33, 1.77, 7.75, repro,
2006-12-28,1.84, 2.01, -11.09, 2.34, 1.85, 8.12, repro,
2006-12-29,0.08, 0.69, -22.60, 2.19, 1.63, 7.22, repro,
2006-12-30,0.82, 2.15, -10.64, 2.30, 1.72, 7.59, repro,
2006-12-31,3.05, 1.15, -19.56, 2.35, 1.78, 7.86, repro,
2007-01-01,2.27, 2.95, -18.71, 2.36, 1.79, 7.86, repro,
2007-01-02,1.43, 2.23, -11.85, 2.33, 1.85, 8.11, repro,
2007-01-03,-0.42, 0.01, -0.72, 2.18, 1.63, 7.25, repro,
2007-01-04,1.75, 2.83, -14.09, 2.17, 1.63, 7.23, repro,
2007-01-05,1.52, 0.12, -19.98, 2.15, 1.61, 7.18, repro,
2007-01-06,3.60, 2.63, -14.09, 2.21, 1.67, 7.40, repro,
2007-01-07,2.38, 3.47, -19.51, 2.19, 1.60, 7.10, repro,
2007-01-08,1.29, 2.63, -22.65, 2.21, 1.64, 7.28, repro,
2007-01-09,1.52, 2.10, -22.18, 2.20, 1.61, 7.19, repro,
2007-01-10,2.31, 2.54, -13.11, 2.21, 1.58, 7.09, repro,
2007-01-11,3.21, 1.98, -18.08, 2.27, 1.61, 7.24, repro,
2007-01-12,2.53, 3.04, -18.12, 2.18, 1.57, 7.06, repro,
2007-01-13,2.88, 3.21, -23.74, 2.11, 1.54, 6.87, repro,
2007-01-14,4.06, 2.65, -23.12, 2.13, 1.54, 6.89, repro,
2007-01-15,3.51, 3.17, -20.06, 2.12, 1.53, 6.90, repro,
2007-01-16,3.14, 1.81, -14.11, 2.20, 1.60, 7.15, repro,
2007-01-17,3.64, 0.46, -20.82, 2.16, 1.58, 7.02, repro,
2007-01-18,1.13, 1.13, -25.19, 2.15, 1.57, 7.00, repro,
2007-01-19,1.72, -0.01, -23.44, 2.18, 1.57, 7.11, repro,
2007-01-20,1.21, -0.81, -19.27, 2.18, 1.56, 7.08, repro,
2007-01-21,-0.48, -0.73, -10.78, 2.12, 1.54, 6.88, repro,
2007-01-22,-0.27, -1.02, -13.11, 2.14, 1.55, 6.95, repro,
2007-01-23,-0.13, -1.76, -12.45, 2.11, 1.54, 6.84, repro,
2007-01-24,-0.53, -2.70, -11.88, 2.11, 1.54, 6.89, repro,
2007-01-25,-1.28, -3.56, -9.89, 2.19, 1.59, 7.02, repro,
2007-01-26,-0.51, -4.30, -15.30, 2.14, 1.53, 6.83, repro,
2007-01-27,-1.87, -3.83, -11.94, 2.13, 1.54, 6.86, repro,
2007-01-28,-1.09, -3.49, -6.22, 2.13, 1.54, 6.89, repro,
2007-01-29,0.27, -3.02, -14.49, 2.12, 1.53, 6.84, repro,
2007-01-30,-1.89, -2.82, -8.15, 2.13, 1.53, 6.84, repro,
2007-01-31,-0.96, -3.54, -2.46, 2.15, 1.54, 6.89, repro,
2007-02-01,-0.90, -2.61, -1.33, 2.15, 1.58, 7.01, repro,
2007-02-02,-0.85, -2.52, -1.33, 2.15, 1.56, 6.95, repro,
2007-02-03,-1.66, -3.24, -4.37, 2.15, 1.56, 6.97, repro,
2007-02-04,-0.22, -2.66, -4.65, 2.12, 1.53, 6.81, repro,
2007-02-05,-0.47, -2.12, -9.80, 2.14, 1.55, 6.90, repro,
2007-02-06,-0.66, -2.74, -7.46, 2.12, 1.54, 6.85, repro,
2007-02-07,-0.87, -3.36, -3.84, 2.17, 1.60, 7.04, repro,
2007-02-08,-0.91, -3.10, -4.93, 2.16, 1.60, 7.04, repro,
2007-02-09,0.96, -2.51, -9.49, 2.16, 1.59, 7.01, repro,
2007-02-10,-0.58, -3.80, -4.20, 2.13, 1.55, 6.87, repro,
2007-02-11,0.66, -4.18, -3.86, 2.12, 1.54, 6.89, repro,
2007-02-12,0.58, -3.68, -4.19, 2.11, 1.54, 6.82, repro,
2007-02-13,-0.61, -2.63, -10.49, 2.12, 1.55, 6.87, repro,
2007-02-14,-0.84, -2.49, -6.66, 2.12, 1.55, 6.86, repro,
2007-02-15,-0.92, -3.26, -7.59, 2.13, 1.54, 6.87, repro,
2007-02-16,-0.68, -3.24, -6.06, 2.11, 1.54, 6.84, repro,
2007-02-17,-1.13, -2.79, -8.40, 2.18, 1.58, 7.03, repro,
2007-02-18,-0.42, -2.09, -2.24, 2.11, 1.54, 6.91, repro,
2007-02-19,-1.68, -2.72, -0.48, 2.15, 1.55, 6.94, repro,
2007-02-20,-2.84, -3.11, 4.20, 2.14, 1.54, 6.87, repro,
2007-02-21,0.32, -3.11, -1.54, 2.11, 1.54, 6.84, repro,
2007-02-22,0.53, -2.82, -4.95, 2.11, 1.53, 6.82, repro,
2007-02-23,-0.07, -2.22, -2.06, 2.17, 1.59, 7.10, repro,
2007-02-24,3.43, -4.86, -10.14, 2.17, 1.56, 7.01, repro,
2007-02-25,-0.60, -3.77, -2.63, 2.13, 1.55, 6.88, repro,
2007-02-26,0.43, -3.27, -0.64, 2.12, 1.53, 6.85, repro,
2007-02-27,1.29, -4.09, 0.94, 2.11, 1.54, 6.86, repro,
2007-02-28,-0.41, -2.91, -1.82, 2.13, 1.55, 6.87, repro,
2007-03-01,-1.81, -1.47, 0.67, 2.22, 1.61, 7.13, repro,
2007-03-02,-1.67, -2.74, -6.65, 2.22, 1.61, 7.16, repro,
2007-03-03,-1.81, -2.86, -13.22, 2.19, 1.58, 7.03, repro,
2007-03-04,-0.19, -3.14, -10.09, 2.17, 1.59, 7.04, repro,
2007-03-05,-0.34, -3.13, -7.29, 2.17, 1.58, 7.01, repro,
2007-03-06,-2.44, -2.93, -2.85, 2.20, 1.60, 7.08, repro,
2007-03-07,-2.21, -2.93, 2.79, 2.20, 1.59, 7.09, repro,
2007-03-08,-1.47, -1.84, 0.25, 2.18, 1.58, 7.00, repro,
2007-03-09,-0.39, -3.18, -7.41, 2.18, 1.57, 6.97, repro,
2007-03-10,-0.99, -3.79, -3.20, 2.24, 1.62, 7.21, repro,
2007-03-11,-2.36, -3.64, -4.30, 2.20, 1.59, 7.04, repro,
2007-03-12,-3.11, -2.84, -5.11, 2.19, 1.58, 7.02, repro,
2007-03-13,-1.43, -2.06, -6.88, 2.14, 1.54, 6.89, repro,
2007-03-14,-0.89, -3.13, -6.20, 2.14, 1.55, 6.87, repro,
2007-03-15,0.77, -3.12, -12.32, 2.18, 1.57, 7.00, repro,
2007-03-16,-1.04, -3.31, -8.71, 2.19, 1.57, 6.99, repro,
2007-03-17,-1.80, -2.91, -5.23, 2.16, 1.54, 6.89, repro,
2007-03-18,-2.04, -2.05, -4.99, 2.15, 1.55, 6.87, repro,
2007-03-19,-1.78, -2.70, -2.66, 2.15, 1.54, 6.83, repro,
2007-03-20,-0.93, -1.52, -5.90, 2.24, 1.56, 6.92, repro,
2007-03-21,-1.41, -2.86, -1.86, 2.24, 1.57, 6.94, repro,
2007-03-22,-2.37, -2.82, 1.52, 2.16, 1.55, 6.94, repro,
2007-03-23,-1.00, -3.18, -4.67, 2.20, 1.59, 7.03, repro,
2007-03-24,-1.11, -2.57, -1.35, 2.13, 1.53, 6.78, repro,
2007-03-25,-2.39, -2.50, 1.92, 2.15, 1.53, 6.83, repro,
2007-03-26,-1.65, -3.60, -7.41, 2.14, 1.54, 6.82, repro,
2007-03-27,-1.00, -3.43, -7.34, 2.21, 1.56, 7.02, repro,
2007-03-28,-1.03, -2.26, -5.84, 2.21, 1.56, 7.03, repro,
2007-03-29,-0.63, -1.64, -8.33, 2.12, 1.53, 6.85, repro,
2007-03-30,-1.85, -2.74, -5.81, 2.13, 1.52, 6.77, repro,
2007-03-31,-2.24, -3.39, -1.36, 2.15, 1.54, 6.88, repro,
2007-04-01,-0.78, -2.60, -4.29, 2.14, 1.53, 6.82, repro,
2007-04-02,-0.38, -2.74, -10.10, 2.16, 1.54, 6.88, repro,
2007-04-03,0.55, -2.84, -9.23, 2.18, 1.58, 6.98, repro,
2007-04-04,0.03, -2.09, -6.99, 2.18, 1.57, 6.98, repro,
2007-04-05,-0.71, -2.20, -6.88, 2.22, 1.61, 7.11, repro,
2007-04-06,-0.06, -1.62, -10.17, 2.17, 1.56, 6.89, repro,
2007-04-07,-0.59, -2.16, -0.20, 2.21, 1.57, 7.02, repro,
2007-04-08,-1.11, -2.18, -3.83, 2.16, 1.54, 6.88, repro,
2007-04-09,0.11, -3.49, 0.81, 2.16, 1.53, 6.87, repro,
2007-04-10,-0.89, -3.35, 2.06, 2.18, 1.56, 6.96, repro,
2007-04-11,-0.73, -2.62, -2.64, 2.14, 1.53, 6.78, repro,
2007-04-12,-0.38, -2.88, -0.57, 2.15, 1.53, 6.83, repro,
2007-04-13,-0.98, -2.40, -2.23, 2.17, 1.53, 6.89, repro,
2007-04-14,-0.52, -3.73, 2.79, 2.15, 1.53, 6.83, repro,
2007-04-15,-1.30, -2.20, -1.17, 2.13, 1.52, 6.76, repro,
2007-04-16,-1.25, -2.14, -2.54, 2.16, 1.53, 6.83, repro,
2007-04-17,-0.48, -2.75, -5.56, 2.16, 1.53, 6.85, repro,
2007-04-18,-1.68, -2.81, -3.66, 2.17, 1.53, 6.86, repro,
2007-04-19,-0.54, -3.06, -4.80, 2.23, 1.57, 7.01, repro,
2007-04-20,-0.07, -3.06, -1.80, 2.17, 1.53, 6.89, repro,
2007-04-21,0.82, -3.60, -1.95, 2.16, 1.53, 6.85, repro,
2007-04-22,-0.27, -3.90, -2.25, 2.17, 1.53, 6.86, repro,
2007-04-23,-1.40, -2.60, -1.38, 2.21, 1.56, 7.00, repro,
2007-04-24,-0.05, -3.32, -7.78, 2.20, 1.55, 7.00, repro,
2007-04-25,-0.45, -2.66, -6.40, 2.19, 1.55, 6.96, repro,
2007-04-26,-1.01, -2.11, -3.92, 2.19, 1.56, 6.95, repro,
2007-04-27,-0.94, -2.82, -1.75, 2.18, 1.53, 6.90, repro,
2007-04-28,-0.51, -3.04, -4.51, 2.16, 1.53, 6.87, repro,
2007-04-29,0.16, -2.98, -2.19, 2.16, 1.53, 6.90, repro,
2007-04-30,0.18, -2.87, -7.48, 2.16, 1.52, 6.89, repro,
2007-05-01,1.30, -2.58, -5.61, 2.15, 1.52, 6.86, repro,
2007-05-02,-0.65, -2.66, 3.24, 2.23, 1.55, 7.10, repro,
2007-05-03,0.63, -2.05, -3.48, 2.24, 1.55, 7.09, repro,
2007-05-04,-0.87, -2.79, -6.87, 2.18, 1.53, 6.92, repro,
2007-05-05,-0.81, -2.33, -7.26, 2.18, 1.56, 7.01, repro,
2007-05-06,0.95, -2.38, -13.14, 2.18, 1.52, 6.88, repro,
2007-05-07,-0.45, -2.31, -7.26, 2.18, 1.52, 6.90, repro,
2007-05-08,-1.96, -1.97, -3.09, 2.21, 1.54, 7.00, repro,
2007-05-09,-0.29, -2.27, -7.46, 2.22, 1.53, 6.96, repro,
2007-05-10,-0.76, -3.39, -7.44, 2.26, 1.59, 7.30, repro,
2007-05-11,0.37, -2.25, -8.30, 2.26, 1.59, 7.29, repro,
2007-05-12,-0.23, -2.66, -3.15, 2.19, 1.52, 6.97, repro,
2007-05-13,-0.31, -1.53, -7.74, 2.24, 1.57, 7.07, repro,
2007-05-14,-0.40, -2.34, -7.32, 2.21, 1.54, 7.00, repro,
2007-05-15,1.05, -2.77, -4.65, 2.20, 1.54, 6.98, repro,
2007-05-16,0.41, -2.43, -9.42, 2.18, 1.53, 6.93, repro,
2007-05-17,0.41, -2.89, -6.45, 2.23, 1.56, 7.13, repro,
2007-05-18,-0.66, -2.95, -2.54, 2.29, 1.61, 7.31, repro,
2007-05-19,-0.36, -2.43, -2.63, 2.19, 1.53, 6.93, repro,
2007-05-20,0.15, -3.89, -6.31, 2.24, 1.57, 7.07, repro,
2007-05-21,-0.16, -3.10, -5.38, 2.17, 1.53, 6.88, repro,
2007-05-22,0.48, -2.00, -10.42, 2.17, 1.52, 6.88, repro,
2007-05-23,0.61, -2.10, -7.15, 2.20, 1.53, 6.96, repro,
2007-05-24,-0.59, -3.09, -3.68, 2.27, 1.58, 7.12, repro,
2007-05-25,0.11, -2.22, -5.69, 2.20, 1.52, 6.91, repro,
2007-05-26,1.49, -2.33, -9.18, 2.19, 1.53, 6.92, repro,
2007-05-27,-0.70, -2.45, -3.09, 2.25, 1.56, 6.95, repro,
2007-05-28,-0.21, -2.96, -4.80, 2.18, 1.52, 6.89, repro,
2007-05-29,-0.25, -2.94, -2.06, 2.20, 1.53, 6.95, repro,
2007-05-30,-0.10, -1.91, -7.16, 2.24, 1.54, 6.96, repro,
2007-05-31,-0.92, -3.07, -6.91, 2.19, 1.52, 6.86, repro,
2007-06-01,-0.42, -1.04, -6.90, 2.19, 1.53, 6.90, repro,
2007-06-02,-0.97, -2.15, -1.15, 2.17, 1.53, 6.87, repro,
2007-06-03,1.72, -2.61, -10.56, 2.19, 1.54, 6.95, repro,
2007-06-04,0.62, -2.42, 1.43, 2.19, 1.54, 7.00, repro,
2007-06-05,-1.91, -2.64, 1.21, 2.24, 1.55, 7.03, repro,
2007-06-06,1.10, -2.83, -6.70, 2.19, 1.53, 6.90, repro,
2007-06-07,0.38, -1.80, -0.23, 2.18, 1.53, 6.90, repro,
2007-06-08,0.14, -2.68, -1.05, 2.18, 1.54, 6.90, repro,
2007-06-09,-0.20, -3.76, 0.62, 2.18, 1.53, 6.88, repro,
2007-06-10,0.39, -2.73, -0.75, 2.19, 1.54, 6.91, repro,
2007-06-11,0.30, -2.79, -4.74, 2.20, 1.56, 6.97, repro,
2007-06-12,0.72, -1.31, -8.85, 2.19, 1.55, 6.95, repro,
2007-06-13,0.98, -2.63, -8.87, 2.22, 1.57, 7.00, repro,
2007-06-14,0.70, -3.52, -10.47, 2.22, 1.58, 7.02, repro,
2007-06-15,0.46, -2.89, -2.10, 2.19, 1.54, 6.96, repro,
2007-06-16,0.96, -3.11, -9.10, 2.19, 1.54, 6.89, repro,
2007-06-17,-0.38, -1.47, -8.90, 2.18, 1.52, 6.84, repro,
2007-06-18,1.41, -2.10, -6.74, 2.17, 1.52, 6.82, repro,
2007-06-19,1.79, -1.91, -8.62, 2.17, 1.52, 6.85, repro,
2007-06-20,0.43, -2.16, -4.44, 2.19, 1.53, 6.90, repro,
2007-06-21,0.39, -1.94, -2.45, 2.19, 1.53, 6.90, repro,
2007-06-22,1.16, -1.82, -7.30, 2.17, 1.52, 6.83, repro,
2007-06-23,0.34, -2.04, -9.28, 2.17, 1.52, 6.84, repro,
2007-06-24,1.16, -1.58, -8.51, 2.21, 1.57, 7.06, repro,
2007-06-25,1.80, -1.34, -9.48, 2.17, 1.53, 6.87, repro,
2007-06-26,-0.03, -1.82, -7.38, 2.19, 1.54, 6.92, repro,
2007-06-27,0.09, -1.71, -5.40, 2.18, 1.52, 6.85, repro,
2007-06-28,0.92, -1.24, -10.18, 2.18, 1.52, 6.88, repro,
2007-06-29,0.27, -1.20, -2.62, 2.19, 1.54, 6.95, repro,
2007-06-30,1.38, -2.32, -6.78, 2.18, 1.52, 6.87, repro,
2007-07-01,0.73, -1.19, -4.16, 2.19, 1.54, 6.93, repro,
2007-07-02,1.65, -1.22, -0.83, 2.19, 1.54, 6.95, repro,
2007-07-03,1.78, -2.79, -7.36, 2.17, 1.52, 6.86, repro,
2007-07-04,-0.11, -0.74, -11.03, 2.19, 1.52, 6.86, repro,
2007-07-05,1.15, -1.87, -5.00, 2.16, 1.52, 6.84, repro,
2007-07-06,1.16, -1.05, -9.11, 2.19, 1.53, 6.86, repro,
2007-07-07,0.52, -1.85, 0.23, 2.18, 1.54, 6.91, repro,
2007-07-08,-1.03, -2.30, -1.70, 2.18, 1.54, 6.90, repro,
2007-07-09,-0.08, -2.14, -1.91, 2.18, 1.53, 6.86, repro,
2007-07-10,0.41, -1.70, -0.21, 2.18, 1.54, 6.93, repro,
2007-07-11,0.79, -1.35, 1.61, 2.18, 1.53, 6.92, repro,
2007-07-12,-0.39, -2.02, 0.23, 2.21, 1.55, 7.02, repro,
2007-07-13,1.28, -3.28, 3.81, 2.22, 1.60, 7.14, repro,
2007-07-14,0.59, -2.83, 3.46, 2.21, 1.57, 7.09, repro,
2007-07-15,-1.48, -2.17, -1.19, 2.19, 1.55, 6.96, repro,
2007-07-16,2.06, -1.70, -2.12, 2.19, 1.53, 6.88, repro,
2007-07-17,0.73, -1.65, 4.28, 2.19, 1.55, 6.96, repro,
2007-07-18,-1.16, -3.48, 2.05, 2.17, 1.54, 6.87, repro,
2007-07-19,-0.50, -1.87, 1.86, 2.19, 1.59, 7.03, repro,
2007-07-20,0.05, -2.34, 1.00, 2.17, 1.53, 6.84, repro,
2007-07-21,-0.18, -1.57, 2.63, 2.19, 1.55, 6.92, repro,
2007-07-22,0.38, -1.08, 2.78, 2.20, 1.54, 6.94, repro,
2007-07-23,0.13, -1.74, 4.89, 2.19, 1.56, 7.00, repro,
2007-07-24,-0.40, -1.79, 8.34, 2.17, 1.54, 6.86, repro,
2007-07-25,0.28, -3.65, 6.23, 2.15, 1.51, 6.76, repro,
2007-07-26,1.16, -1.54, 2.65, 2.19, 1.53, 6.86, repro,
2007-07-27,0.26, -3.54, 2.06, 2.19, 1.53, 6.90, repro,
2007-07-28,-0.02, -1.88, 5.74, 2.28, 1.57, 7.01, repro,
2007-07-29,-0.54, -2.34, 4.54, 2.17, 1.53, 6.86, repro,
2007-07-30,0.19, -2.68, 3.35, 2.15, 1.52, 6.82, repro,
2007-07-31,0.87, -2.41, -0.60, 2.17, 1.52, 6.81, repro,
2007-08-01,-0.47, -1.39, 4.25, 2.19, 1.52, 6.88, repro,
2007-08-02,0.21, -2.19, 1.97, 2.20, 1.53, 6.93, repro,
2007-08-03,-0.99, -3.48, 5.50, 2.28, 1.56, 7.04, repro,
2007-08-04,0.47, -1.92, 5.42, 2.18, 1.53, 6.89, repro,
2007-08-05,0.53, -2.86, 7.26, 2.16, 1.51, 6.78, repro,
2007-08-06,0.61, -3.07, 2.91, 2.31, 1.60, 7.16, repro,
2007-08-07,-0.13, -2.58, 9.20, 2.23, 1.56, 7.00, repro,
2007-08-08,0.20, -2.43, 3.18, 2.19, 1.53, 6.91, repro,
2007-08-09,-1.04, -2.99, 6.72, 2.25, 1.55, 6.89, repro,
2007-08-10,-0.61, -2.87, 6.98, 2.17, 1.52, 6.86, repro,
2007-08-11,-0.50, -2.62, 7.59, 2.17, 1.52, 6.85, repro,
2007-08-12,-0.88, -3.14, 8.37, 2.18, 1.52, 6.86, repro,
2007-08-13,1.13, -1.78, -2.26, 2.19, 1.53, 6.88, repro,
2007-08-14,1.03, -2.28, -4.20, 2.32, 1.64, 7.37, repro,
2007-08-15,0.59, -2.80, 2.31, 2.43, 1.68, 7.47, repro,
2007-08-16,-0.16, -3.37, 8.96, 2.28, 1.60, 7.17, repro,
2007-08-17,0.04, -3.45, 7.82, 2.28, 1.59, 7.15, repro,
2007-08-18,1.65, -2.05, 2.89, 2.35, 1.63, 7.39, repro,
2007-08-19,1.64, -2.67, 5.90, 2.34, 1.63, 7.37, repro,
2007-08-20,-0.57, -1.95, 8.73, 2.36, 1.60, 7.12, repro,
2007-08-21,1.06, -2.96, 3.49, 2.37, 1.60, 7.13, repro,
2007-08-22,0.60, -2.33, 4.99, 2.29, 1.57, 7.10, repro,
2007-08-23,1.36, -3.27, 7.03, 2.23, 1.53, 6.91, repro,
2007-08-24,1.32, -2.13, 5.08, 2.35, 1.63, 7.32, repro,
2007-08-25,-0.87, -3.52, 9.90, 2.28, 1.60, 7.13, repro,
2007-08-26,0.46, -3.62, 6.82, 2.32, 1.64, 7.33, repro,
2007-08-27,1.45, -2.37, -0.27, 2.35, 1.65, 7.40, repro,
2007-08-28,0.38, -2.69, 1.45, 2.30, 1.60, 7.24, repro,
2007-08-29,0.10, -3.55, 3.62, 2.27, 1.60, 7.16, repro,
2007-08-30,-0.11, -2.98, 7.04, 2.27, 1.60, 7.17, repro,
2007-08-31,-2.12, -3.70, 11.89, 2.28, 1.59, 7.12, repro,
2007-09-01,0.33, -3.85, 4.39, 2.30, 1.61, 7.25, repro,
2007-09-02,1.79, -3.05, 5.36, 2.31, 1.62, 7.27, repro,
2007-09-03,-1.63, -3.06, 13.89, 2.29, 1.61, 7.26, repro,
2007-09-04,-0.28, -2.38, 9.85, 2.36, 1.69, 7.48, repro,
2007-09-05,0.54, -4.19, 4.64, 2.28, 1.60, 7.13, repro,
2007-09-06,-1.29, -3.57, 7.95, 2.29, 1.60, 7.15, repro,
2007-09-07,1.00, -2.43, 7.32, 2.30, 1.59, 7.18, repro,
2007-09-08,0.95, -3.06, 5.59, 2.36, 1.65, 7.41, repro,
2007-09-09,-0.62, -3.12, 5.67, 2.40, 1.71, 7.64, repro,
2007-09-10,-0.07, -2.36, 5.59, 2.29, 1.60, 7.16, repro,
2007-09-11,0.12, -3.68, 1.89, 2.28, 1.60, 7.11, repro,
2007-09-12,1.50, -3.05, 2.41, 2.30, 1.61, 7.22, repro,
2007-09-13,0.13, -3.11, 5.45, 2.31, 1.62, 7.29, repro,
2007-09-14,0.35, -3.30, 2.82, 2.34, 1.65, 7.45, repro,
2007-09-15,-0.29, -3.45, 8.60, 2.37, 1.64, 7.49, repro,
2007-09-16,-0.21, -2.79, 7.24, 2.30, 1.62, 7.25, repro,
2007-09-17,0.24, -2.92, 0.52, 2.34, 1.65, 7.45, repro,
2007-09-18,0.03, -3.54, 3.16, 2.22, 1.59, 7.10, repro,
2007-09-19,0.20, -3.10, 3.53, 2.20, 1.55, 6.96, repro,
2007-09-20,0.71, -2.50, 9.63, 2.21, 1.55, 6.99, repro,
2007-09-21,0.25, -2.43, 4.26, 2.28, 1.58, 7.20, repro,
2007-09-22,-1.96, -3.16, 7.07, 2.26, 1.56, 7.06, repro,
2007-09-23,1.15, -2.97, 4.85, 2.29, 1.57, 7.09, repro,
2007-09-24,-1.39, -2.10, 6.40, 2.35, 1.61, 7.30, repro,
2007-09-25,-0.32, -2.14, 0.48, 2.29, 1.58, 7.19, repro,
2007-09-26,0.22, -2.67, 8.99, 2.26, 1.55, 7.05, repro,
2007-09-27,-0.26, -2.24, 2.65, 2.29, 1.57, 7.20, repro,
2007-09-28,0.90, -2.74, 11.44, 2.24, 1.58, 7.07, repro,
2007-09-29,-0.33, -3.17, 8.70, 2.29, 1.61, 7.15, repro,
2007-09-30,0.06, -3.13, 6.62, 2.22, 1.57, 7.04, repro,
2007-10-01,-0.21, -2.67, 9.88, 2.33, 1.65, 7.34, repro,
2007-10-02,-1.37, -3.21, 10.81, 2.36, 1.68, 7.50, repro,
2007-10-03,-0.14, -2.39, 7.22, 2.32, 1.65, 7.38, repro,
2007-10-04,0.30, -3.04, 6.96, 2.27, 1.59, 7.23, repro,